FW5273 Weather Reports


time (UTC)temp
C
wind
direction
speed
KPH
gust
KPH
rain 1hr
cm
rain 24hr
cm
rain mn
cm
humidity
%
barometer
mb
20260509064036 -17 0.0 0.0 0.00 0.00 0.00
20260509063036 -17 0.0 0.0 0.00 0.00 0.00
20260509062036 -17 0.0 0.0 0.00 0.00 0.00
20260509061036 -17 0.0 0.0 0.00 0.00 0.00
20260509060037 -17 0.0 0.0 0.00 0.00 0.00
20260509055038 -17 0.0 0.0 0.00 0.00 0.00
20260509054037 -17 0.0 0.0 0.00 0.00 0.00
20260509053037 -17 0.0 0.0 0.00 0.00 0.00
20260509052036 -17 0.0 0.0 0.00 0.00 0.00
20260509051039 -17 0.0 0.0 0.00 0.00 0.00
20260509050058 -17 0.0 0.0 0.00 0.00 0.00
20260509045037 -17 0.0 0.0 0.00 0.00 0.00
20260509044038 -17 0.0 0.0 0.00 0.00 0.00
20260509043038 -17 0.0 0.0 0.00 0.00 0.00
20260509042038 -17 0.0 0.0 0.00 0.00 0.00
20260509041056 -17 0.0 0.0 0.00 0.00 0.00
20260509040036 -17 0.0 0.0 0.00 0.00 0.00
20260509035036 -17 0.0 0.0 0.00 0.00 0.00
20260509034117 -17 0.0 0.0 0.00 0.00 0.00
20260509033037 -17 0.0 0.0 0.00 0.00 0.00
20260509032037 -17 0.0 0.0 0.00 0.00 0.00
20260509031058 -17 0.0 0.0 0.00 0.00 0.00
20260509030057 -17 0.0 0.0 0.00 0.00 0.00
20260509025537 -17 0.0 0.0 0.00 0.00 0.00
20260509024536 -17 0.0 0.0 0.00 0.00 0.00
20260509023536 -17 0.0 0.0 0.00 0.00 0.00
20260509022557 -17 0.0 0.0 0.00 0.00 0.00
20260509021539 -17 0.0 0.0 0.00 0.00 0.00
20260509020537 -17 0.0 0.0 0.00 0.00 0.00
20260509015537 -17 0.0 0.0 0.00 0.00 0.00
20260509014537 -17 0.0 0.0 0.00 0.00 0.00
20260509013536 -17 0.0 0.0 0.00 0.00 0.00
20260509013035 11 0.0 0.0 0.00 0.00 0.00 34
20260509012541 11 0 11.3 0.0 0.00 0.00 0.00 34
20260509012040 11 0 4.8 12.9 0.00 0.00 0.00 34
20260509011040 11 0 4.8 9.7 0.00 0.00 0.00 33
20260509010040 11 0 8.0 17.7 0.00 0.00 0.00 32
20260509005103 12 0 1.6 11.3 0.00 0.00 0.00 32
20260509004039 12 0 4.8 14.5 0.00 0.00 0.00 30
20260509003059 12 0 4.8 14.5 0.00 0.00 0.00 30
20260509002040 12 0 4.8 14.5 0.00 0.00 0.00 30
20260509001042 12 0 4.8 12.9 0.00 0.00 0.00 28
20260509000040 12 0 4.8 16.1 0.00 0.00 0.00 28
20260508235041 13 0 3.2 14.5 0.00 0.00 0.00 27
20260508234121 12 0 4.8 12.9 0.00 0.00 0.00 25
20260508233100 13 0 6.4 14.5 0.00 0.00 0.00 23
20260508232040 13 0 3.2 12.9 0.00 0.00 0.00 24
20260508231039 13 0 8.0 17.7 0.00 0.00 0.00 22
20260508230038 13 0 11.3 16.1 0.00 0.00 0.00 19
20260508225039 13 0 4.8 12.9 0.00 0.00 0.00 19
20260508224038 13 0 6.4 16.1 0.00 0.00 0.00 19
20260508223039 14 0 9.7 16.1 0.00 0.00 0.00 24
20260508222039 13 0 8.0 16.1 0.00 0.00 0.00 25
20260508221101 14 0 6.4 14.5 0.00 0.00 0.00 25
20260508220040 14 0 8.0 16.1 0.00 0.00 0.00 27
20260508215042 13 0 9.7 19.3 0.00 0.00 0.00 27
20260508214039 13 0 12.9 17.7 0.00 0.00 0.00 26
20260508213040 15 0 9.7 19.3 0.00 0.00 0.00 25
20260508212040 14 0 6.4 16.1 0.00 0.00 0.00 25
20260508211059 13 0 11.3 17.7 0.00 0.00 0.00 26
20260508210043 14 0 11.3 16.1 0.00 0.00 0.00 26
20260508205040 13 0 9.7 16.1 0.00 0.00 0.00 26
20260508204038 14 0 11.3 16.1 0.00 0.00 0.00 26
20260508203039 14 0 8.0 17.7 0.00 0.00 0.00 26
20260508202058 14 0 8.0 16.1 0.00 0.00 0.00 26
20260508201059 14 0 8.0 14.5 0.00 0.00 0.00 27
20260508200100 14 0 8.0 16.1 0.00 0.00 0.00 27
20260508195040 15 0 6.4 16.1 0.00 0.00 0.00 28
20260508194101 15 0 6.4 14.5 0.00 0.00 0.00 28
20260508193041 14 0 8.0 19.3 0.00 0.00 0.00 30
20260508192040 13 0 8.0 16.1 0.00 0.00 0.00 29
20260508191040 14 0 4.8 14.5 0.00 0.00 0.00 27
20260508190039 13 0 8.0 17.7 0.00 0.00 0.00 27
20260508185038 13 0 8.0 17.7 0.00 0.00 0.00 28
20260508184040 13 0 8.0 17.7 0.00 0.00 0.00 29
20260508183039 13 0 6.4 17.7 0.00 0.00 0.00 29
20260508182037 -17 0.0 0.0 0.00 0.00 0.00
20260508181037 -17 0.0 0.0 0.00 0.00 0.00
20260508180058 -17 0.0 0.0 0.00 0.00 0.00
20260508175035 -17 0.0 0.0 0.00 0.00 0.00
20260508174035 -17 0.0 0.0 0.00 0.00 0.00
20260508173057 -17 0.0 0.0 0.00 0.00 0.00
20260508172036 -17 0.0 0.0 0.00 0.00 0.00
20260508171038 -17 0.0 0.0 0.00 0.00 0.00
20260508170056 -17 0.0 0.0 0.00 0.00 0.00
20260508165039 -17 0.0 0.0 0.00 0.00 0.00
20260508164037 -17 0.0 0.0 0.00 0.00 0.00
20260508163058 -17 0.0 0.0 0.00 0.00 0.00
20260508162037 -17 0.0 0.0 0.00 0.00 0.00
20260508161037 -17 0.0 0.0 0.00 0.00 0.00
20260508160037 -17 0.0 0.0 0.00 0.00 0.00
20260508155036 -17 0.0 0.0 0.00 0.00 0.00
20260508154037 -17 0.0 0.0 0.00 0.00 0.00
20260508153057 -17 0.0 0.0 0.00 0.00 0.00
20260508152036 -17 0.0 0.0 0.00 0.00 0.00
20260508151035 -17 0.0 0.0 0.00 0.00 0.00
20260508150059 -17 0.0 0.0 0.00 0.00 0.00
20260508145037 -17 0.0 0.0 0.00 0.00 0.00
20260508144538 -17 0.0 0.0 0.00 0.00 0.00
20260508143556 -17 0.0 0.0 0.00 0.00 0.00
20260508142537 -17 0.0 0.0 0.00 0.00 0.00
20260508141538 -17 0.0 0.0 0.00 0.00 0.00
20260508140557 -17 0.0 0.0 0.00 0.00 0.00
20260508135616 -17 0.0 0.0 0.00 0.00 0.00
20260508134539 -17 0.0 0.0 0.00 0.00 0.00
20260508133537 -17 0.0 0.0 0.00 0.00 0.00
20260508132535 -17 0.0 0.0 0.00 0.00 0.00
20260508131536 -17 0.0 0.0 0.00 0.00 0.00
20260508130537 -17 0.0 0.0 0.00 0.00 0.00
20260508125535 -17 0.0 0.0 0.00 0.00 0.00
20260508124536 -17 0.0 0.0 0.00 0.00 0.00
20260508123539 -17 0.0 0.0 0.00 0.00 0.00
20260508123038 -17 0.0 0.0 0.00 0.00 0.00
20260508122038 -17 0.0 0.0 0.00 0.00 0.00
20260508121037 -17 0.0 0.0 0.00 0.00 0.00
20260508120038 -17 0.0 0.0 0.00 0.00 0.00
20260508115539 -17 0.0 0.0 0.00 0.00 0.00
20260508114538 -17 0.0 0.0 0.00 0.00 0.00
20260508113539 -17 0.0 0.0 0.00 0.00 0.00
20260508112537 -17 0.0 0.0 0.00 0.00 0.00
20260508111538 -17 0.0 0.0 0.00 0.00 0.00
20260508110536 -17 0.0 0.0 0.00 0.00 0.00
20260508105537 -17 0.0 0.0 0.00 0.00 0.00
20260508104619 -17 0.0 0.0 0.00 0.00 0.00
20260508103538 -17 0.0 0.0 0.00 0.00 0.00
20260508102538 -17 0.0 0.0 0.00 0.00 0.00
20260508101538 -17 0.0 0.0 0.00 0.00 0.00
20260508100538 -17 0.0 0.0 0.00 0.00 0.00
20260508095537 -17 0.0 0.0 0.00 0.00 0.00
20260508094538 -17 0.0 0.0 0.00 0.00 0.00
20260508093537 -17 0.0 0.0 0.00 0.00 0.00
20260508092537 -17 0.0 0.0 0.00 0.00 0.00
20260508091537 -17 0.0 0.0 0.00 0.00 0.00
20260508090559 -17 0.0 0.0 0.00 0.00 0.00
20260508085559 -17 0.0 0.0 0.00 0.00 0.00
20260508084556 -17 0.0 0.0 0.00 0.00 0.00
20260508083537 -17 0.0 0.0 0.00 0.00 0.00
20260508082538 -17 0.0 0.0 0.00 0.00 0.00
20260508081616 -17 0.0 0.0 0.00 0.00 0.00
20260508080536 -17 0.0 0.0 0.00 0.00 0.00
20260508075535 -17 0.0 0.0 0.00 0.00 0.00
20260508074536 -17 0.0 0.0 0.00 0.00 0.00
20260508074035 -17 0.0 0.0 0.00 0.00 0.00
20260508073037 -17 0.0 0.0 0.00 0.00 0.00
20260508072037 -17 0.0 0.0 0.00 0.00 0.00
20260508071037 -17 0.0 0.0 0.00 0.00 0.00
20260508070036 -17 0.0 0.0 0.00 0.00 0.00
20260508065036 -17 0.0 0.0 0.00 0.00 0.00